Year,Month,Day,Hour,Minute,Value (Times are PST for windgust in km/hr)
2020,05,05,00,06,1.60
2020,05,05,00,07,3.20
2020,05,05,00,08,1.60
2020,05,05,00,10,3.20
2020,05,05,00,11,1.60
2020,05,05,00,18,1.60
2020,05,05,00,19,6.40
2020,05,05,00,20,6.40
2020,05,05,00,21,3.20
2020,05,05,00,22,6.40
2020,05,05,00,23,6.40
2020,05,05,00,24,1.60
2020,05,05,00,25,4.80
2020,05,05,00,26,4.80
2020,05,05,00,27,1.60
2020,05,05,00,53,1.60
2020,05,05,00,56,4.80
2020,05,05,00,57,3.20
2020,05,05,00,58,4.80
2020,05,05,00,59,1.60
2020,05,05,01,00,1.60
2020,05,05,01,01,3.20
2020,05,05,01,02,3.20
2020,05,05,01,03,1.60
2020,05,05,02,17,8.10
2020,05,05,02,18,4.80
2020,05,05,02,19,3.20
2020,05,05,02,20,3.20
2020,05,05,02,21,6.40
2020,05,05,02,22,4.80
2020,05,05,02,23,4.80
2020,05,05,02,24,6.40
2020,05,05,02,25,4.80
2020,05,05,02,26,11.30
2020,05,05,02,27,8.10
2020,05,05,02,28,8.10
2020,05,05,02,29,3.20
2020,05,05,02,33,1.60
2020,05,05,02,34,3.20
2020,05,05,02,35,3.20
2020,05,05,02,36,4.80
2020,05,05,02,37,4.80
2020,05,05,02,38,6.40
2020,05,05,02,39,8.10
2020,05,05,02,40,8.10
2020,05,05,02,41,4.80
2020,05,05,02,42,8.10
2020,05,05,02,43,1.60
2020,05,05,02,44,3.20
2020,05,05,02,45,1.60
2020,05,05,02,46,3.20
2020,05,05,02,47,1.60
2020,05,05,02,48,3.20
2020,05,05,02,49,3.20
2020,05,05,02,50,3.20
2020,05,05,02,52,6.40
2020,05,05,02,53,1.60
2020,05,05,03,02,4.80
2020,05,05,03,03,1.60
2020,05,05,03,04,3.20
2020,05,05,03,05,3.20
2020,05,05,03,06,6.40
2020,05,05,03,07,4.80
2020,05,05,03,08,11.30
2020,05,05,03,09,6.40
2020,05,05,03,10,4.80
2020,05,05,03,11,4.80
2020,05,05,03,12,4.80
2020,05,05,03,13,8.10
2020,05,05,03,14,6.40
2020,05,05,03,15,6.40
2020,05,05,03,16,4.80
2020,05,05,03,17,4.80
2020,05,05,03,18,4.80
2020,05,05,03,19,1.60
2020,05,05,03,21,1.60
2020,05,05,03,22,4.80
2020,05,05,03,23,4.80
2020,05,05,03,24,3.20
2020,05,05,03,25,3.20
2020,05,05,03,26,6.40
2020,05,05,03,27,6.40
2020,05,05,03,28,3.20
2020,05,05,03,29,1.60
2020,05,05,03,32,4.80
2020,05,05,03,33,6.40
2020,05,05,03,34,8.10
2020,05,05,03,35,4.80
2020,05,05,03,37,3.20
2020,05,05,04,14,3.20
2020,05,05,04,15,1.60
2020,05,05,04,38,1.60
2020,05,05,04,39,3.20
2020,05,05,04,40,3.20
2020,05,05,04,41,1.60
2020,05,05,04,43,3.20
2020,05,05,04,44,3.20
2020,05,05,04,45,4.80
2020,05,05,04,46,4.80
2020,05,05,04,47,6.40
2020,05,05,04,48,4.80
2020,05,05,04,49,3.20
2020,05,05,04,50,1.60
2020,05,05,04,51,3.20
2020,05,05,04,52,3.20
2020,05,05,04,53,1.60
2020,05,05,05,34,3.20
2020,05,05,05,35,3.20
2020,05,05,05,36,3.20
2020,05,05,05,37,3.20
2020,05,05,05,38,1.60
2020,05,05,05,39,1.60
2020,05,05,05,40,1.60
2020,05,05,05,41,1.60
2020,05,05,05,42,1.60
2020,05,05,07,08,3.20
2020,05,05,07,09,3.20
2020,05,05,07,10,3.20
2020,05,05,07,11,3.20
2020,05,05,07,12,1.60
2020,05,05,07,13,1.60
2020,05,05,07,38,4.80
2020,05,05,07,39,3.20
2020,05,05,07,40,4.80
2020,05,05,07,41,4.80
2020,05,05,07,42,4.80
2020,05,05,07,43,3.20
2020,05,05,07,44,3.20
2020,05,05,07,45,1.60
2020,05,05,07,46,3.20
2020,05,05,07,47,3.20
2020,05,05,07,48,1.60
2020,05,05,07,54,1.60
2020,05,05,08,12,1.60
2020,05,05,08,13,1.60
2020,05,05,08,14,1.60
2020,05,05,08,15,1.60
2020,05,05,08,16,3.20
2020,05,05,08,17,4.80
2020,05,05,08,18,3.20
2020,05,05,08,19,4.80
2020,05,05,08,20,6.40
2020,05,05,08,21,3.20
2020,05,05,08,22,3.20
2020,05,05,08,23,1.60
2020,05,05,08,37,3.20
2020,05,05,08,38,3.20
2020,05,05,08,39,1.60
2020,05,05,08,40,4.80
2020,05,05,08,41,3.20
2020,05,05,08,42,3.20
2020,05,05,08,43,1.60
2020,05,05,08,44,3.20
2020,05,05,08,45,3.20
2020,05,05,08,46,3.20
2020,05,05,08,47,3.20
2020,05,05,08,48,1.60
2020,05,05,08,53,3.20
2020,05,05,08,54,3.20
2020,05,05,08,55,3.20
2020,05,05,09,23,1.60
2020,05,05,09,24,3.20
2020,05,05,09,29,1.60
2020,05,05,09,30,1.60
2020,05,05,09,32,1.60
2020,05,05,09,46,1.60
2020,05,05,09,47,1.60
2020,05,05,09,51,4.80
2020,05,05,09,52,6.40
2020,05,05,09,53,6.40
2020,05,05,09,54,4.80
2020,05,05,09,55,6.40
2020,05,05,09,56,4.80
2020,05,05,09,59,4.80
2020,05,05,10,00,4.80
2020,05,05,10,01,1.60
2020,05,05,10,02,3.20
2020,05,05,10,04,3.20
2020,05,05,10,05,3.20
2020,05,05,10,08,4.80
2020,05,05,10,09,6.40
2020,05,05,10,10,6.40
2020,05,05,10,15,1.60
2020,05,05,10,16,3.20
2020,05,05,10,17,3.20
2020,05,05,10,18,4.80
2020,05,05,10,19,1.60
2020,05,05,10,20,4.80
2020,05,05,10,21,4.80
2020,05,05,10,31,4.80
2020,05,05,10,32,3.20
2020,05,05,10,33,4.80
2020,05,05,10,34,4.80
2020,05,05,10,35,1.60
2020,05,05,10,36,1.60
2020,05,05,10,41,3.20
2020,05,05,10,42,3.20
2020,05,05,10,43,6.40
2020,05,05,10,44,6.40
2020,05,05,10,45,9.60
2020,05,05,10,46,14.50
2020,05,05,10,47,4.80
2020,05,05,10,48,4.80
2020,05,05,10,49,3.20
2020,05,05,10,50,1.60
2020,05,05,10,51,6.40
2020,05,05,10,52,3.20
2020,05,05,10,53,3.20
2020,05,05,10,54,9.60
2020,05,05,10,55,6.40
2020,05,05,10,56,3.20
2020,05,05,10,57,20.90
2020,05,05,10,58,22.50
2020,05,05,10,59,9.60
2020,05,05,11,00,6.40
2020,05,05,11,01,6.40
2020,05,05,11,02,4.80
2020,05,05,11,03,3.20
2020,05,05,11,04,8.10
2020,05,05,11,05,8.10
2020,05,05,11,06,19.30
2020,05,05,11,07,16.10
2020,05,05,11,08,14.50
2020,05,05,11,09,22.50
2020,05,05,11,10,9.60
2020,05,05,11,11,9.60
2020,05,05,11,12,16.10
2020,05,05,11,13,19.30
2020,05,05,11,14,24.20
2020,05,05,11,15,12.90
2020,05,05,11,16,9.60
2020,05,05,11,17,20.90
2020,05,05,11,18,19.30
2020,05,05,11,19,22.50
2020,05,05,11,20,12.90
2020,05,05,11,21,9.60
2020,05,05,11,22,8.10
2020,05,05,11,23,9.60
2020,05,05,11,24,9.60
2020,05,05,11,25,16.10
2020,05,05,11,26,16.10
2020,05,05,11,27,16.10
2020,05,05,11,28,6.40
2020,05,05,11,29,9.60
2020,05,05,11,30,11.30
2020,05,05,11,31,14.50
2020,05,05,11,32,16.10
2020,05,05,11,33,14.50
2020,05,05,11,34,11.30
2020,05,05,11,35,16.10
2020,05,05,11,36,16.10
2020,05,05,11,37,11.30
2020,05,05,11,38,19.30
2020,05,05,11,39,11.30
2020,05,05,11,40,20.90
2020,05,05,11,41,12.90
2020,05,05,11,42,12.90
2020,05,05,11,43,9.60
2020,05,05,11,44,8.10
2020,05,05,11,45,4.80
2020,05,05,11,46,4.80
2020,05,05,11,47,8.10
2020,05,05,11,48,8.10
2020,05,05,11,49,4.80
2020,05,05,11,50,14.50
2020,05,05,11,51,17.70
2020,05,05,11,52,19.30
2020,05,05,11,53,16.10
2020,05,05,11,54,9.60
2020,05,05,11,55,11.30
2020,05,05,11,56,6.40
2020,05,05,11,57,6.40
2020,05,05,11,58,16.10
2020,05,05,11,59,11.30
2020,05,05,12,00,8.10
2020,05,05,12,01,9.60
2020,05,05,12,02,14.50
2020,05,05,12,03,17.70
2020,05,05,12,04,16.10
2020,05,05,12,05,14.50
2020,05,05,12,06,9.60
2020,05,05,12,07,24.20
2020,05,05,12,08,17.70
2020,05,05,12,09,16.10
2020,05,05,12,10,17.70
2020,05,05,12,11,16.10
2020,05,05,12,12,20.90
2020,05,05,12,13,22.50
2020,05,05,12,14,14.50
2020,05,05,12,15,11.30
2020,05,05,12,16,22.50
2020,05,05,12,17,17.70
2020,05,05,12,18,11.30
2020,05,05,12,19,14.50
2020,05,05,12,20,16.10
2020,05,05,12,21,11.30
2020,05,05,12,22,9.60
2020,05,05,12,23,11.30
2020,05,05,12,24,16.10
2020,05,05,12,25,9.60
2020,05,05,12,26,6.40
2020,05,05,12,27,20.90
2020,05,05,12,28,17.70
2020,05,05,12,29,11.30
2020,05,05,12,30,14.50
2020,05,05,12,31,11.30
2020,05,05,12,32,16.10
2020,05,05,12,33,6.40
2020,05,05,12,34,11.30
2020,05,05,12,35,9.60
2020,05,05,12,36,8.10
2020,05,05,12,37,22.50
2020,05,05,12,38,17.70
2020,05,05,12,39,24.20
2020,05,05,12,40,22.50
2020,05,05,12,41,9.60
2020,05,05,12,42,22.50
2020,05,05,12,43,20.90
2020,05,05,12,44,16.10
2020,05,05,12,45,6.40
2020,05,05,12,46,16.10
2020,05,05,12,47,16.10
2020,05,05,12,48,9.60
2020,05,05,12,49,16.10
2020,05,05,12,50,6.40
2020,05,05,12,51,11.30
2020,05,05,12,52,16.10
2020,05,05,12,53,8.10
2020,05,05,12,54,14.50
2020,05,05,12,55,27.40
2020,05,05,12,56,27.40
2020,05,05,12,57,19.30
2020,05,05,12,58,22.50
2020,05,05,12,59,11.30
2020,05,05,13,00,17.70
2020,05,05,13,01,12.90
2020,05,05,13,02,17.70
2020,05,05,13,03,11.30
2020,05,05,13,04,9.60
2020,05,05,13,05,20.90
2020,05,05,13,06,19.30
2020,05,05,13,07,17.70
2020,05,05,13,08,32.20
2020,05,05,13,09,17.70
2020,05,05,13,10,17.70
2020,05,05,13,11,25.70
2020,05,05,13,12,22.50
2020,05,05,13,13,8.10
2020,05,05,13,14,22.50
2020,05,05,13,15,11.30
2020,05,05,13,16,11.30
2020,05,05,13,17,22.50
2020,05,05,13,18,16.10
2020,05,05,13,19,6.40
2020,05,05,13,20,14.50
2020,05,05,13,21,8.10
2020,05,05,13,22,11.30
2020,05,05,13,23,6.40
2020,05,05,13,24,8.10
2020,05,05,13,25,8.10
2020,05,05,13,26,8.10
2020,05,05,13,27,6.40
2020,05,05,13,28,19.30
2020,05,05,13,29,17.70
2020,05,05,13,30,16.10
2020,05,05,13,31,17.70
2020,05,05,13,32,14.50
2020,05,05,13,33,24.20
2020,05,05,13,34,9.60
2020,05,05,13,35,11.30
2020,05,05,13,36,27.40
2020,05,05,13,37,17.70
2020,05,05,13,38,25.70
2020,05,05,13,39,17.70
2020,05,05,13,40,9.60
2020,05,05,13,41,9.60
2020,05,05,13,42,8.10
2020,05,05,13,43,9.60
2020,05,05,13,44,6.40
2020,05,05,13,45,8.10
2020,05,05,13,46,14.50
2020,05,05,13,47,6.40
2020,05,05,13,48,17.70
2020,05,05,13,49,8.10
2020,05,05,13,50,20.90
2020,05,05,13,51,20.90
2020,05,05,13,52,22.50
2020,05,05,13,53,19.30
2020,05,05,13,54,19.30
2020,05,05,13,55,17.70
2020,05,05,13,56,9.60
2020,05,05,13,57,8.10
2020,05,05,13,58,17.70
2020,05,05,13,59,19.30
2020,05,05,14,00,11.30
2020,05,05,14,01,17.70
2020,05,05,14,02,17.70
2020,05,05,14,03,14.50
2020,05,05,14,04,27.40
2020,05,05,14,05,24.20
2020,05,05,14,06,17.70
2020,05,05,14,07,11.30
2020,05,05,14,08,16.10
2020,05,05,14,09,19.30
2020,05,05,14,10,16.10
2020,05,05,14,11,14.50
2020,05,05,14,12,19.30
2020,05,05,14,13,9.60
2020,05,05,14,14,9.60
2020,05,05,14,15,11.30
2020,05,05,14,16,9.60
2020,05,05,14,17,9.60
2020,05,05,14,18,4.80
2020,05,05,14,19,3.20
2020,05,05,14,20,8.10
2020,05,05,14,21,17.70
2020,05,05,14,22,25.70
2020,05,05,14,23,16.10
2020,05,05,14,24,6.40
2020,05,05,14,25,4.80
2020,05,05,14,26,4.80
2020,05,05,14,27,4.80
2020,05,05,14,28,3.20
2020,05,05,14,29,6.40
2020,05,05,14,30,16.10
2020,05,05,14,31,8.10
2020,05,05,14,32,6.40
2020,05,05,14,33,11.30
2020,05,05,14,34,9.60
2020,05,05,14,35,8.10
2020,05,05,14,36,17.70
2020,05,05,14,37,8.10
2020,05,05,14,38,8.10
2020,05,05,14,39,8.10
2020,05,05,14,40,4.80
2020,05,05,14,41,6.40
2020,05,05,14,42,11.30
2020,05,05,14,43,8.10
2020,05,05,14,44,6.40
2020,05,05,14,45,6.40
2020,05,05,14,46,4.80
2020,05,05,14,47,4.80
2020,05,05,14,48,9.60
2020,05,05,14,49,8.10
2020,05,05,14,50,9.60
2020,05,05,14,51,4.80
2020,05,05,14,52,4.80
2020,05,05,14,53,6.40
2020,05,05,14,54,8.10
2020,05,05,14,55,12.90
2020,05,05,14,56,9.60
2020,05,05,14,57,16.10
2020,05,05,14,58,6.40
2020,05,05,14,59,11.30
2020,05,05,15,00,9.60
2020,05,05,15,01,4.80
2020,05,05,15,02,1.60
2020,05,05,15,03,8.10
2020,05,05,15,04,8.10
2020,05,05,15,05,9.60
2020,05,05,15,06,11.30
2020,05,05,15,07,9.60
2020,05,05,15,08,4.80
2020,05,05,15,09,8.10
2020,05,05,15,10,6.40
2020,05,05,15,11,4.80
2020,05,05,15,12,16.10
2020,05,05,15,13,19.30
2020,05,05,15,14,11.30
2020,05,05,15,15,20.90
2020,05,05,15,16,20.90
2020,05,05,15,17,11.30
2020,05,05,15,18,16.10
2020,05,05,15,19,9.60
2020,05,05,15,20,8.10
2020,05,05,15,21,16.10
2020,05,05,15,22,19.30
2020,05,05,15,23,9.60
2020,05,05,15,24,8.10
2020,05,05,15,25,11.30
2020,05,05,15,26,11.30
2020,05,05,15,27,9.60
2020,05,05,15,28,1.60
2020,05,05,15,29,8.10
2020,05,05,15,30,25.70
2020,05,05,15,31,6.40
2020,05,05,15,32,11.30
2020,05,05,15,33,3.20
2020,05,05,15,34,6.40
2020,05,05,15,35,9.60
2020,05,05,15,36,3.20
2020,05,05,15,37,1.60
2020,05,05,15,38,4.80
2020,05,05,15,40,1.60
2020,05,05,15,42,1.60
2020,05,05,15,43,8.10
2020,05,05,15,44,8.10
2020,05,05,15,45,4.80
2020,05,05,15,46,9.60
2020,05,05,15,47,14.50
2020,05,05,15,48,8.10
2020,05,05,15,49,11.30
2020,05,05,15,50,19.30
2020,05,05,15,51,17.70
2020,05,05,15,52,16.10
2020,05,05,15,53,12.90
2020,05,05,15,54,6.40
2020,05,05,15,55,6.40
2020,05,05,15,56,8.10
2020,05,05,15,57,6.40
2020,05,05,15,58,9.60
2020,05,05,15,59,6.40
2020,05,05,16,00,8.10
2020,05,05,16,01,9.60
2020,05,05,16,02,9.60
2020,05,05,16,03,11.30
2020,05,05,16,04,6.40
2020,05,05,16,05,6.40
2020,05,05,16,06,4.80
2020,05,05,16,07,1.60
2020,05,05,16,08,4.80
2020,05,05,16,09,3.20
2020,05,05,16,10,14.50
2020,05,05,16,11,17.70
2020,05,05,16,12,16.10
2020,05,05,16,13,11.30
2020,05,05,16,14,9.60
2020,05,05,16,15,4.80
2020,05,05,16,16,3.20
2020,05,05,16,17,8.10
2020,05,05,16,18,6.40
2020,05,05,16,19,3.20
2020,05,05,16,20,8.10
2020,05,05,16,21,11.30
2020,05,05,16,22,9.60
2020,05,05,16,23,3.20
2020,05,05,16,24,3.20
2020,05,05,16,25,4.80
2020,05,05,16,28,6.40
2020,05,05,16,29,6.40
2020,05,05,16,30,16.10
2020,05,05,16,31,16.10
2020,05,05,16,32,8.10
2020,05,05,16,33,6.40
2020,05,05,16,34,8.10
2020,05,05,16,35,6.40
2020,05,05,16,36,6.40
2020,05,05,16,37,6.40
2020,05,05,16,38,8.10
2020,05,05,16,39,17.70
2020,05,05,16,40,16.10
2020,05,05,16,41,16.10
2020,05,05,16,42,14.50
2020,05,05,16,43,8.10
2020,05,05,16,44,4.80
2020,05,05,16,46,6.40
2020,05,05,16,47,14.50
2020,05,05,16,48,6.40
2020,05,05,16,49,11.30
2020,05,05,16,50,20.90
2020,05,05,16,51,20.90
2020,05,05,16,52,6.40
2020,05,05,16,53,4.80
2020,05,05,16,54,9.60
2020,05,05,16,55,8.10
2020,05,05,16,56,14.50
2020,05,05,16,57,14.50
2020,05,05,16,58,8.10
2020,05,05,16,59,6.40
2020,05,05,17,00,4.80
2020,05,05,17,01,9.60
2020,05,05,17,02,6.40
2020,05,05,17,03,4.80
2020,05,05,17,04,1.60
2020,05,05,17,05,8.10
2020,05,05,17,06,4.80
2020,05,05,17,07,6.40
2020,05,05,17,08,9.60
2020,05,05,17,09,6.40
2020,05,05,17,10,6.40
2020,05,05,17,11,11.30
2020,05,05,17,12,8.10
2020,05,05,17,13,4.80
2020,05,05,17,14,3.20
2020,05,05,17,15,4.80
2020,05,05,17,16,1.60
2020,05,05,17,17,4.80
2020,05,05,17,18,9.60
2020,05,05,17,19,3.20
2020,05,05,17,20,8.10
2020,05,05,17,21,14.50
2020,05,05,17,22,11.30
2020,05,05,17,23,6.40
2020,05,05,17,24,6.40
2020,05,05,17,26,11.30
2020,05,05,17,27,14.50
2020,05,05,17,28,6.40
2020,05,05,17,29,11.30
2020,05,05,17,30,4.80
2020,05,05,17,31,3.20
2020,05,05,17,32,4.80
2020,05,05,17,33,4.80
2020,05,05,17,34,4.80
2020,05,05,17,35,4.80
2020,05,05,17,36,1.60
2020,05,05,17,39,4.80
2020,05,05,17,40,6.40
2020,05,05,17,41,3.20
2020,05,05,17,42,3.20
2020,05,05,17,43,4.80
2020,05,05,17,44,4.80
2020,05,05,17,45,1.60
2020,05,05,17,47,4.80
2020,05,05,17,48,4.80
2020,05,05,17,49,4.80
2020,05,05,17,50,4.80
2020,05,05,17,51,6.40
2020,05,05,17,55,6.40
2020,05,05,17,56,4.80
2020,05,05,17,58,1.60
2020,05,05,18,03,8.10
2020,05,05,18,04,11.30
2020,05,05,18,05,4.80
2020,05,05,18,06,9.60
2020,05,05,18,07,4.80
2020,05,05,18,08,6.40
2020,05,05,18,09,1.60
2020,05,05,18,11,4.80
2020,05,05,18,12,1.60
2020,05,05,18,13,1.60
2020,05,05,18,14,3.20
2020,05,05,18,15,11.30
2020,05,05,18,16,4.80
2020,05,05,18,17,4.80
2020,05,05,18,18,4.80
2020,05,05,18,19,1.60
2020,05,05,18,20,3.20
2020,05,05,18,21,6.40
2020,05,05,18,22,8.10
2020,05,05,18,23,4.80
2020,05,05,18,24,1.60
2020,05,05,18,31,3.20
2020,05,05,18,32,4.80
2020,05,05,18,33,6.40
2020,05,05,18,34,8.10
2020,05,05,18,35,8.10
2020,05,05,18,36,8.10
2020,05,05,18,37,6.40
2020,05,05,18,38,3.20
2020,05,05,18,39,1.60
2020,05,05,18,40,3.20
2020,05,05,18,41,3.20
2020,05,05,18,45,1.60
2020,05,05,18,46,8.10
2020,05,05,18,47,1.60
2020,05,05,18,48,1.60
2020,05,05,18,50,6.40
2020,05,05,18,51,6.40
2020,05,05,18,53,3.20
2020,05,05,18,54,8.10
2020,05,05,18,55,9.60
2020,05,05,18,56,4.80
2020,05,05,18,57,6.40
2020,05,05,18,58,9.60
2020,05,05,18,59,9.60
2020,05,05,19,00,16.10
2020,05,05,19,01,3.20
2020,05,05,19,02,1.60
2020,05,05,19,04,3.20
2020,05,05,19,05,6.40
2020,05,05,19,06,3.20
2020,05,05,19,07,6.40
2020,05,05,19,08,3.20
2020,05,05,19,13,4.80
2020,05,05,19,14,4.80
2020,05,05,19,15,4.80
2020,05,05,19,16,3.20
2020,05,05,19,17,9.60
2020,05,05,19,18,4.80
2020,05,05,19,19,3.20
2020,05,05,19,20,6.40
2020,05,05,19,21,6.40
2020,05,05,19,22,9.60
2020,05,05,19,23,3.20
2020,05,05,19,24,1.60
2020,05,05,19,25,4.80
2020,05,05,19,26,6.40
2020,05,05,19,27,1.60
2020,05,05,19,29,1.60
2020,05,05,19,33,6.40
2020,05,05,19,34,8.10
2020,05,05,19,35,8.10
2020,05,05,19,50,4.80
2020,05,05,19,53,4.80
2020,05,05,19,54,3.20
2020,05,05,19,55,3.20
2020,05,05,19,57,1.60
2020,05,05,20,02,6.40
2020,05,05,20,03,6.40
2020,05,05,20,04,8.10
2020,05,05,20,05,8.10
2020,05,05,20,06,8.10
2020,05,05,20,07,4.80
2020,05,05,20,08,12.90
2020,05,05,20,09,11.30
2020,05,05,20,10,6.40
2020,05,05,20,11,11.30
2020,05,05,20,12,6.40
2020,05,05,20,13,3.20
2020,05,05,20,14,3.20
2020,05,05,20,15,4.80
2020,05,05,20,16,4.80
2020,05,05,20,17,8.10
2020,05,05,20,18,6.40
2020,05,05,20,19,4.80
2020,05,05,20,20,4.80
2020,05,05,20,21,1.60
2020,05,05,20,25,3.20
2020,05,05,20,26,3.20
2020,05,05,20,27,3.20
2020,05,05,20,32,4.80
2020,05,05,20,33,6.40
2020,05,05,20,34,3.20
2020,05,05,20,35,3.20
2020,05,05,20,36,3.20
2020,05,05,20,37,3.20
2020,05,05,20,38,3.20
2020,05,05,20,39,3.20
2020,05,05,20,40,3.20
2020,05,05,20,41,3.20
2020,05,05,20,42,3.20
2020,05,05,20,43,3.20
2020,05,05,21,25,3.20
2020,05,05,21,26,3.20
2020,05,05,21,27,1.60
2020,05,05,21,30,4.80
2020,05,05,21,31,3.20
2020,05,05,21,34,1.60
2020,05,05,21,35,1.60
2020,05,05,21,39,3.20
2020,05,05,21,43,1.60
2020,05,05,21,45,3.20
2020,05,05,21,46,3.20
2020,05,05,21,47,3.20
2020,05,05,21,48,3.20
2020,05,05,21,49,1.60
2020,05,05,21,50,3.20
2020,05,05,21,52,3.20
2020,05,05,21,53,4.80
2020,05,05,21,54,6.40
2020,05,05,21,55,11.30
2020,05,05,21,56,11.30
2020,05,05,21,57,4.80
2020,05,05,21,58,4.80
2020,05,05,21,59,9.60
2020,05,05,22,00,8.10
2020,05,05,22,01,9.60
2020,05,05,22,02,9.60
2020,05,05,22,03,6.40
2020,05,05,22,04,6.40
2020,05,05,22,05,6.40
2020,05,05,22,06,6.40
2020,05,05,22,07,9.60
2020,05,05,22,08,11.30
2020,05,05,22,09,4.80
2020,05,05,22,10,1.60
2020,05,05,22,11,9.60
2020,05,05,22,12,8.10
2020,05,05,22,13,3.20
2020,05,05,22,14,8.10
2020,05,05,22,15,8.10
2020,05,05,22,16,9.60
2020,05,05,22,17,9.60
2020,05,05,22,18,6.40
2020,05,05,22,19,6.40
2020,05,05,22,20,4.80
2020,05,05,22,21,9.60
2020,05,05,22,22,4.80
2020,05,05,22,23,4.80
2020,05,05,22,24,3.20
2020,05,05,22,25,4.80
2020,05,05,22,26,3.20
2020,05,05,22,27,8.10
2020,05,05,22,28,14.50
2020,05,05,22,29,6.40
2020,05,05,22,30,17.70
2020,05,05,22,31,25.70
2020,05,05,22,32,25.70
2020,05,05,22,33,4.80
2020,05,05,22,34,6.40
2020,05,05,22,35,8.10
2020,05,05,22,36,8.10
2020,05,05,22,37,12.90
2020,05,05,22,38,16.10
2020,05,05,22,39,11.30
2020,05,05,22,40,9.60
2020,05,05,22,41,9.60
2020,05,05,22,42,9.60
2020,05,05,22,43,9.60
2020,05,05,22,44,17.70
2020,05,05,22,45,8.10
2020,05,05,22,46,4.80
2020,05,05,22,47,9.60
2020,05,05,22,48,8.10
2020,05,05,22,49,16.10
2020,05,05,22,50,11.30
2020,05,05,22,51,9.60
2020,05,05,22,52,6.40
2020,05,05,22,53,6.40
2020,05,05,22,54,8.10
2020,05,05,22,55,3.20
2020,05,05,22,57,4.80
2020,05,05,22,58,9.60
2020,05,05,22,59,9.60
2020,05,05,23,00,8.10
2020,05,05,23,01,9.60
2020,05,05,23,02,8.10
2020,05,05,23,03,6.40
2020,05,05,23,04,8.10
2020,05,05,23,05,16.10
2020,05,05,23,06,16.10
2020,05,05,23,07,4.80
2020,05,05,23,08,6.40
2020,05,05,23,09,9.60
2020,05,05,23,10,9.60
2020,05,05,23,11,8.10
2020,05,05,23,12,9.60
2020,05,05,23,13,8.10
2020,05,05,23,14,8.10
2020,05,05,23,15,6.40
2020,05,05,23,16,4.80
2020,05,05,23,17,11.30
2020,05,05,23,18,11.30
2020,05,05,23,19,8.10
2020,05,05,23,20,4.80
2020,05,05,23,21,6.40
2020,05,05,23,22,6.40
2020,05,05,23,23,6.40
2020,05,05,23,24,4.80
2020,05,05,23,25,4.80
2020,05,05,23,26,8.10
2020,05,05,23,27,9.60
2020,05,05,23,28,4.80
2020,05,05,23,29,4.80
2020,05,05,23,30,6.40
2020,05,05,23,31,16.10
2020,05,05,23,32,17.70
2020,05,05,23,33,9.60
2020,05,05,23,34,6.40
2020,05,05,23,35,4.80
2020,05,05,23,36,11.30
2020,05,05,23,37,9.60
2020,05,05,23,38,9.60
2020,05,05,23,39,19.30
2020,05,05,23,40,14.50
2020,05,05,23,41,11.30
2020,05,05,23,42,14.50
2020,05,05,23,43,11.30
2020,05,05,23,44,11.30
2020,05,05,23,45,9.60
2020,05,05,23,46,11.30
2020,05,05,23,47,11.30
2020,05,05,23,48,14.50
2020,05,05,23,49,14.50
2020,05,05,23,50,16.10
2020,05,05,23,51,14.50
2020,05,05,23,52,11.30
2020,05,05,23,53,9.60
2020,05,05,23,54,8.10
2020,05,05,23,55,14.50
2020,05,05,23,56,9.60
2020,05,05,23,57,17.70
2020,05,05,23,58,11.30
2020,05,05,23,59,9.60
